Charleston, SC

5:05 PM EDT on July 27, 2017 (GMT -0400)
Charleston Air Force Base-International

Weather History for KCHS - June, 2013

Change the Weather History Date:

Wednesday, June 5, 2013

  Actual Average Record
Temperature  
Mean Temperature 78 °F 77 °F  
Max Temperature 84 °F 87 °F 100 °F (1943)
Min Temperature 72 °F 68 °F 53 °F (1988)
Degree Days  
Heating Degree Days 0 0  
Month to date heating degree days 0 0  
Since 1 June heating degree days 0 0  
Since 1 July heating degree days 1846 1975  
Cooling Degree Days 13 12  
Month to date cooling degree days 66 59  
Year to date cooling degree days 413 421  
Since 1 June cooling degree days 66 59  
Growing Degree Days 28 (Base 50)    
Moisture  
Dew Point 71 °F    
Average Humidity 82    
Maximum Humidity 94    
Minimum Humidity 69    
Precipitation  
Precipitation 1.69 in 0.16 in 2.37 in (1995)
Month to date precipitation 4.03 0.75  
Year to date precipitation 27.47 17.06  
Sea Level Pressure  
Sea Level Pressure 30.01 in    
Wind  
Wind Speed 7 mph (East)    
Max Wind Speed 26 mph    
Max Gust Speed 32 mph    
Visibility 8 miles    
Events Rain , Thunderstorm    
T = Trace of Precipitation, MM = Missing Value Source: NWS Daily Summary

Daily Weather History Graph

Daily Weather History Graph

Search for Another Location

Airport or City:

Trip Planner

Search our weather history database for the weather conditions in past years. The results will help you decide how hot, cold, wet, or windy it might be!

Date:

Astronomy

Jun. 05, 2013 Rise Set
Actual Time 6:11 AM EDT 8:25 PM EDT
Civil Twilight 5:43 AM EDT 8:54 PM EDT
Nautical Twilight 5:08 AM EDT 9:29 PM EDT
Astronomical Twilight 4:31 AM EDT 10:06 PM EDT
Moon 4:07 AM EDT (6/5) 5:56 PM EDT (6/5)
Length of Visible Light 15h 10m
Length of Day
14h 14m
Waning Crescent, 8% of the Moon is Illuminated
Jun 5
Waning Crescent
Jun 8
New
Jun 16
First Quarter
Jun 23
Full
Jun 30
Last Quarter

Hourly Weather History & Observations

Time (EDT) Temp. Heat Index Dew Point Humidity Pressure Visibility Wind Dir Wind Speed Gust Speed Precip Events Conditions
12:56 AM 73.9 °F - 70.0 °F 87% 30.03 in 10.0 mi NE 3.5 mph - N/A   Scattered Clouds
1:56 AM 73.9 °F - 70.0 °F 87% 30.02 in 10.0 mi Calm Calm - N/A   Mostly Cloudy
2:21 AM 73.4 °F - 69.8 °F 88% 30.01 in 10.0 mi Calm Calm - N/A   Mostly Cloudy
2:56 AM 73.9 °F - 71.1 °F 91% 30.01 in 8.0 mi NNE 3.5 mph - N/A   Mostly Cloudy
3:22 AM 73.4 °F - 71.6 °F 94% 30.00 in 1.0 mi NE 3.5 mph - N/A   Overcast
3:56 AM 75.0 °F - 73.0 °F 94% 30.00 in 1.0 mi NNE 4.6 mph - N/A   Overcast
4:56 AM 73.9 °F - 72.0 °F 93% 30.02 in 1.0 mi ENE 12.7 mph - N/A   Overcast
5:03 AM 73.4 °F - 71.6 °F 94% 30.02 in 5.0 mi ENE 9.2 mph - N/A   Mostly Cloudy
5:56 AM 73.0 °F - 70.0 °F 90% 30.02 in 10.0 mi NE 3.5 mph - 0.00 in   Mostly Cloudy
6:02 AM 73.4 °F - 69.8 °F 88% 30.02 in 10.0 mi NNE 6.9 mph - N/A   Mostly Cloudy
6:56 AM 73.0 °F - 69.1 °F 87% 30.03 in 10.0 mi ENE 4.6 mph - N/A   Mostly Cloudy
7:56 AM 75.9 °F - 71.1 °F 85% 30.03 in 10.0 mi ENE 6.9 mph - N/A   Mostly Cloudy
8:56 AM 80.1 °F 83.8 °F 72.0 °F 76% 30.04 in 10.0 mi ENE 9.2 mph - N/A   Mostly Cloudy
9:56 AM 82.0 °F 87.4 °F 73.0 °F 74% 30.04 in 10.0 mi East 8.1 mph - N/A   Mostly Cloudy
10:34 AM 82.4 °F 87.2 °F 71.6 °F 70% 30.03 in 10.0 mi SE 10.4 mph - N/A   Mostly Cloudy
10:56 AM 81.0 °F 84.9 °F 71.1 °F 72% 30.04 in 10.0 mi SE 9.2 mph - N/A   Mostly Cloudy
11:05 AM 78.8 °F - 71.6 °F 78% 30.05 in 10.0 mi ENE 19.6 mph 24.2 mph 0.00 in Rain , Thunderstorm Light Thunderstorms and Rain
11:17 AM 73.4 °F - 69.8 °F 88% 30.05 in 4.0 mi East 24.2 mph 28.8 mph 0.00 in Rain , Thunderstorm Light Thunderstorms and Rain
11:39 AM 73.4 °F - 68.0 °F 83% 30.05 in 7.0 mi SE 10.4 mph - 0.10 in Rain , Thunderstorm Light Thunderstorms and Rain
11:56 AM 72.0 °F - 69.1 °F 91% 30.05 in 10.0 mi NE 4.6 mph - 0.11 in Rain Light Rain
12:56 PM 75.0 °F - 72.0 °F 90% 30.05 in 10.0 mi ENE 8.1 mph - 0.08 in Rain Light Rain
1:56 PM 80.1 °F 84.5 °F 73.9 °F 81% 30.02 in 10.0 mi ESE 9.2 mph - 0.00 in   Mostly Cloudy
2:56 PM 80.1 °F 83.8 °F 72.0 °F 76% 30.00 in 10.0 mi ESE 15.0 mph - N/A   Mostly Cloudy
3:56 PM 81.0 °F 85.2 °F 72.0 °F 74% 29.99 in 10.0 mi SE 11.5 mph 18.4 mph 0.00 in   Mostly Cloudy
4:56 PM 81.0 °F 84.4 °F 70.0 °F 69% 29.99 in 10.0 mi ESE 13.8 mph - N/A   Mostly Cloudy
5:56 PM 79.0 °F - 73.9 °F 84% 29.98 in 10.0 mi East 6.9 mph - 0.06 in   Mostly Cloudy
6:03 PM 78.8 °F - 73.4 °F 83% 29.98 in 10.0 mi ESE 10.4 mph - N/A Thunderstorm Thunderstorm
6:16 PM 73.4 °F - 69.8 °F 88% 29.99 in 4.0 mi SE 12.7 mph 28.8 mph 0.02 in Rain , Thunderstorm Heavy Thunderstorms and Rain
6:37 PM 73.4 °F - 69.8 °F 88% 29.98 in 7.0 mi East 8.1 mph - 0.19 in Rain Light Rain
6:56 PM 75.0 °F - 70.0 °F 84% 29.97 in 10.0 mi East 9.2 mph 16.1 mph 0.20 in Rain Light Rain
7:56 PM 75.0 °F - 71.1 °F 87% 29.98 in 7.0 mi NE 4.6 mph - 0.06 in Rain Light Rain
8:37 PM 75.2 °F - 71.6 °F 89% 30.00 in 2.0 mi SE 11.5 mph 19.6 mph 0.13 in Rain Heavy Rain
8:49 PM 73.4 °F - 69.8 °F 88% 29.99 in 4.0 mi South 5.8 mph - 0.64 in Rain , Thunderstorm Heavy Thunderstorms and Rain
8:56 PM 73.0 °F - 70.0 °F 90% 29.99 in 4.0 mi SE 6.9 mph - 0.67 in Rain , Thunderstorm Light Thunderstorms and Rain
9:56 PM 73.0 °F - 70.0 °F 90% 29.99 in 10.0 mi East 6.9 mph - 0.13 in Rain , Thunderstorm Light Thunderstorms and Rain
10:21 PM 73.4 °F - 69.8 °F 88% 30.00 in 8.0 mi SE 4.6 mph - 0.03 in Rain Light Rain
10:56 PM 73.9 °F - 71.1 °F 91% 29.99 in 10.0 mi Calm Calm - 0.08 in Rain Light Rain
11:47 PM 73.4 °F - 71.6 °F 94% 29.99 in 7.0 mi ESE 3.5 mph - 0.14 in Rain , Thunderstorm Light Thunderstorms and Rain
11:56 PM 73.9 °F - 72.0 °F 93% 29.99 in 7.0 mi East 4.6 mph - 0.16 in Rain , Thunderstorm Light Thunderstorms and Rain